Regional Weather Roundup
Issued by NWS

Home | Current Version | Previous Version | Text Only | Print | Product List | Glossary On
Versions: 1 2 3 4 5 6 7 8 9 10 11 12 13 14 15 16 17 18 19 20 21 22 23 24 25 26 27 28 29 30 31 32 33 34 35 36 37 38 39 40 41 42 43 44 45 46 47 48 49 50
000
ASUS43 KLMK 260202
RWRKY
KENTUCKY REGIONAL WEATHER ROUNDUP
NATIONAL WEATHER SERVICE LOUISVILLE KY
1000 PM EDT MON MAY 25 2015

NOTE "FAIR" INDICATES FEW OR NO CLOUDS BELOW 12,000 FEET
WITH NO SIGNIFICANT WEATHER AND/OR OBSTRUCTIONS TO VISIBILITY.

KYZ001>023-026-027-061>063-070>075-260300-
WESTERN AND SOUTH CENTRAL KENTUCKY

CITY           SKY/WX    TMP DP  RH WIND       PRES   REMARKS
PADUCAH        MOCLDY    71  67  87 SE5       30.03R
HENDERSON      CLOUDY    70  64  83 S7        30.05R
OWENSBORO      MOCLDY    70  68  93 S6        30.08R
HOPKINSVILLE   CLOUDY    71  68  90 SE9       30.08R
BOWLING GREEN  MOCLDY    70  65  84 S7        30.09S
GLASGOW        NOT AVBL
$$

KYZ024-025-028>034-038-045-046-053-260300-
NORTH CENTRAL KENTUCKY

CITY           SKY/WX    TMP DP  RH WIND       PRES   REMARKS
LOUISVILLE/SDF CLOUDY    72  66  81 S7        30.08S
LOUISVILLE/LOU CLOUDY    71  66  84 VRB5      30.09R
FORT KNOX      CLOUDY    70  67  90 S7        30.07S
$$

KYZ035>037-039>044-047>052-055>060-089>105-260300-
NORTHEAST KENTUCKY

CITY           SKY/WX    TMP DP  RH WIND       PRES   REMARKS
LEXINGTON      CLOUDY    69  66  90 SW3       30.13R
COVINGTON      CLOUDY    70  64  81 CALM      30.10S
FRANKFORT      MOCLDY    70  63  78 S3        30.10R
$$

KYZ054-064>069-076>088-106>120-260300-
SOUTHEAST KENTUCKY

CITY           SKY/WX    TMP DP  RH WIND       PRES   REMARKS
JACKSON        PTCLDY    74  60  61 CALM      30.15S
LONDON         MOCLDY    75  60  59 S5        30.14S
SOMERSET       NOT AVBL
MIDDLESBORO    CLOUDY    76  63  63 S8        30.16F
MONTICELLO     CLOUDY    69  67  93 S5        30.17R
$$



USA.gov is the U.S. government's official web portal to all federal, state and local government web resources and services.